Avalon School, Santa Catalina Island Weather observations

Data are for 10 minute period ending at time listed.
 Day   Time   Solar   Ave.   Ave.  Ave.  Vector    Max.   Stn.    Total
  of    of     Rad.   Air    Rel.  Wind   Wind     Wind   Baro.  Precip.
Year   Day            Temp.  Hum.  Speed  Dir.     Gust   Pres.         
2014   (PST)   W/m2    F      %     mph   deg.      mph    mb.     in.  
------------------------------------------------------------------------
 112   20:20    0.0    57   72.9     1    124.7     3.6    999.0   0.00  
 112   20:30    0.0    57   73.0     1    243.5     2.4    999.0   0.00  
 112   20:40    0.0    56   74.4     2    269.3     3.0    999.0   0.00  
 112   20:50    0.0    55   75.6     1    243.8     3.0    999.0   0.00  
 112   21:00    0.0    55   77.3     2    269.7     2.4    999.0   0.00  
 112   21:10    0.0    54   78.2     0    263.0     1.8    999.0   0.00  
 112   21:20    0.0    54   79.2     1    267.3     2.4    999.0   0.00  
 112   21:30    0.0    54   79.4     0    277.7     1.2    999.0   0.00  
 112   21:40    0.0    55   78.8     1    237.6     6.0    999.0   0.00  
 112   21:50    0.0    55   78.1     2    242.4     4.2    999.0   0.00  
 112   22:00    0.0    55   79.0     2    271.4     3.6    999.0   0.00  
 112   22:10    0.0    54   79.9     2    257.3     3.0    999.0   0.00  
 112   22:20    0.0    54   79.7     2    257.5     4.2    999.0   0.00  
 112   22:30    0.0    54   79.9     0    262.8     1.8    999.0   0.00  
 112   22:40    0.0    54   80.9     2    234.9     5.4    999.0   0.00  
 112   22:50    0.0    55   77.1     3    244.9     4.8    999.0   0.00  
 112   23:00    0.0    55   75.7     1    258.8     5.4    999.0   0.00  
 112   23:10    0.0    54   77.0     1    217.3     3.0    999.0   0.00  
 112   23:20    0.0    54   77.8     2    263.3     3.6    999.0   0.00  
 112   23:30    0.0    54   77.5     2    268.3     4.2    999.0   0.00  
 112   23:40    0.0    54   77.5     3    270.4     3.6    999.0   0.00  
 112   23:50    0.0    54   78.9     2    260.7     3.6    999.0   0.00  
 113    0:00    0.0    54   80.0     2    271.7     4.8    999.0   0.00  
 113    0:10    0.0    54   81.1     0    259.1     2.4    999.0   0.00  
 113    0:20    0.0    53   82.5     0    258.2     1.8    999.0   0.00  
 113    0:30    0.0    54   83.1     1    250.4     3.0    999.0   0.00  
 113    0:40    0.0    54   83.0     0    268.8     1.8    999.0   0.00  
 113    0:50    0.0    54   83.7     1    235.7     2.4    999.0   0.00  
 113    1:00    0.0    55   83.4     1    177.0     3.6    999.0   0.00  
 113    1:10    0.0    54   83.7     0    214.1     1.8    999.0   0.00  
 113    1:20    0.0    54   84.5     0    249.5     1.8    999.0   0.00  
 113    1:30    0.0    54   86.2     0    169.0     1.2    999.0   0.00  
 113    1:40    0.0    54   86.7     1    171.7     4.2    999.0   0.00  
 113    1:50    0.0    53   87.0     0    115.2     1.2    999.0   0.00  
 113    2:00    0.0    53   87.6     0      0.0     0.0    999.0   0.00  
 113    2:10    0.0    52   87.8     0    122.7     1.2    999.0   0.00  
 113    2:20    0.0    53   89.0     0    225.7     1.8    999.0   0.00  
 113    2:30    0.0    53   88.8     0    129.7     1.8    999.0   0.00  
 113    2:40    0.0    53   89.1     0    119.8     1.2    999.0   0.00  
 113    2:50    0.0    52   89.6     0    264.4     1.2    999.0   0.00  
 113    3:00    0.0    53   89.9     0    147.5     2.4    999.0   0.00  
 113    3:10    0.0    52   90.2     0    275.2     1.8    999.0   0.00  
 113    3:20    0.0    53   90.9     0    273.1     2.4    999.0   0.00  
 113    3:30    0.0    53   90.8     0    154.7     1.2    999.0   0.00  
 113    3:40    0.0    52   91.1     0    173.6     1.8    999.0   0.00  
 113    3:50    0.0    52   91.4     0      0.0     0.0    999.0   0.00  
 113    4:00    0.0    52   91.6     0      0.0     0.0    999.0   0.00  
 113    4:10    0.0    52   92.0     0      0.0     0.0    999.0   0.00  
 113    4:20    0.0    52   92.1     0    264.0     1.8    999.0   0.00  
 113    4:30    0.0    52   91.9     0    254.0     1.2    999.0   0.00  
 113    4:40    0.0    52   91.7     2    266.8     4.2    999.0   0.00  
 113    4:50    0.0    52   91.2     1    271.9     3.0    999.0   0.00  
 113    5:00    0.0    52   91.3     1    272.7     3.0    999.0   0.00  
 113    5:10    1.0    52   91.5     0    187.7     2.4    999.0   0.00  
 113    5:20    4.0    52   91.6     2    260.2     3.0    999.0   0.00  
 113    5:30   10.0    52   91.5     2    265.2     3.6    999.0   0.00  
 113    5:40   20.0    52   91.1     0    139.4     1.8    999.0   0.00  
 113    5:50   43.0    52   91.6     0    248.2     1.2    999.0   0.00  
 113    6:00   66.0    53   90.9     0    189.6     1.2    999.0   0.00  
 113    6:10  100.0    54   90.0     0      0.0     0.0    999.0   0.00  
 113    6:20  133.0    56   88.1     0      0.0     0.0    999.0   0.00  
 113    6:30  140.0    57   83.3     0      0.0     0.0    999.0   0.00  
 113    6:40  161.0    59   79.5     0      0.0     0.0    999.0   0.00  
 113    6:50  192.0    61   75.2     0      0.0     0.0    999.0   0.00  
 113    7:00  234.0    63   72.1     0      0.0     0.0    999.0   0.00  
 113    7:10  268.0    64   71.8     0      0.0     0.0    999.0   0.00  
 113    7:20  291.0    64   73.6     2     85.5     6.0    999.0   0.00  
 113    7:30  312.0    64   74.9     3     86.8     6.6    999.0   0.00  
 113    7:40  283.0    63   76.2     4    101.2     6.0    999.0   0.00  
 113    7:50  367.0    64   74.5     4    130.4     7.8    999.0   0.00  
 113    8:00  409.0    64   74.1     4     94.7     6.0    999.0   0.00  
 113    8:10  433.0    64   71.5     5    124.6     8.4    999.0   0.00  
 113    8:20  464.0    64   69.4     5    117.8     7.8    999.0   0.00  
 113    8:30  494.0    65   67.3     4     98.5     8.4    999.0   0.00  
 113    8:40  484.0    64   67.9     4    126.5     7.8    999.0   0.00  
 113    8:50  536.0    66   66.6     4    102.2     7.2    999.0   0.00  
 113    9:00  560.0    65   66.2     5    106.9     9.6    999.0   0.00  
 113    9:10  588.0    65   66.9     4     96.9     7.2    999.0   0.00  
 113    9:20  609.0    65   68.4     4    101.2     8.4    999.0   0.00  
 113    9:30  623.0    65   68.6     5    102.5     8.4    999.0   0.00  
 113    9:40  656.0    66   69.1     4    104.7     7.2    999.0   0.00  
 113    9:50  662.0    65   71.4     4     93.6     9.0    999.0   0.00  
 113   10:00  693.0    65   72.6     4    107.4     7.8    999.0   0.00  
 113   10:10  728.0    66   70.8     4    103.7     8.4    999.0   0.00  
 113   10:20  726.0    66   70.3     4    122.3     9.0    999.0   0.00  
 113   10:30  733.0    66   71.0     4    102.8     7.8    999.0   0.00  
 113   10:40  720.0    66   70.5     4     97.4     9.6    999.0   0.00  
 113   10:50  734.0    66   71.8     4    115.6     9.6    999.0   0.00  
 113   11:00  745.0    66   71.2     4     94.5     9.6    999.0   0.00  
 113   11:10  705.0    66   70.8     5    101.8     8.4    999.0   0.00  
 113   11:20  529.0    66   70.8     5     92.3     9.6    999.0   0.00  
 113   11:30  561.0    66   71.6     3    123.8     6.6    999.0   0.00  
 113   11:40  513.0    66   68.2     4    131.9     7.2    999.0   0.00  
 113   11:50  666.0    66   67.1     4    101.7     7.2    999.0   0.00  
 113   12:00  598.0    66   65.7     4    115.2     9.0    999.0   0.00  
 113   12:10  412.0    66   66.0     4    115.2     7.8    999.0   0.00  
 113   12:20  364.0    65   69.1     6    118.3    13.1    999.0   0.00  
 113   12:30  785.0    66   68.0     5    111.7    10.2    999.0   0.00  
 113   12:40  744.0    66   67.1     5    104.4    11.3    999.0   0.00  
 113   12:50  787.0    66   67.5     6    102.5    12.5    999.0   0.00  
 113   13:00  765.0    66   67.6     5    102.5    11.3    999.0   0.00  
 113   13:10  781.0    66   65.7     5    113.8     9.6    999.0   0.00  
 113   13:20  778.0    66   62.6     5    108.0    10.2    999.0   0.00  
 113   13:30  773.0    66   61.1     5    101.9    10.2    999.0   0.00  
 113   13:40  760.0    66   60.4     5    112.2    10.2    999.0   0.00  
 113   13:50  768.0    66   59.0     5    109.7    11.3    999.0   0.00  
 113   14:00  647.0    67   57.3     5     99.1     9.0    999.0   0.00  
 113   14:10  559.0    66   59.1     5     95.6     8.4    999.0   0.00  
 113   14:20  697.0    66   60.3     4    115.3     7.2    999.0   0.00  
 113   14:30  662.0    66   60.9     4     94.1     7.8    999.0   0.00  
 113   14:40  627.0    67   62.4     5    112.2     9.0    999.0   0.00  
 113   14:50  605.0    66   65.5     5    113.4     8.4    999.0   0.00  
 113   15:00  587.0    66   65.1     5     99.3     9.0    999.0   0.00  
 113   15:10  558.0    67   63.0     3     85.5     5.4    999.0   0.00  
 113   15:20  504.0    67   63.5     4    112.6     7.8    999.0   0.00  
 113   15:30  505.0    68   59.2     4     74.0     7.2    999.0   0.00  
 113   15:40  499.0    69   52.7     4     47.0    10.2    999.0   0.00  
 113   15:50  465.0    68   61.7     4    117.9     7.8    999.0   0.00  
 113   16:00  432.0    68   60.7     4    293.7     9.0    999.0   0.00  
 113   16:10  404.0    68   61.6     4     92.8     8.4    999.0   0.00  
 113   16:20  375.0    67   61.8     3     82.4     7.2    999.0   0.00  
 113   16:30  343.0    67   62.6     4     62.0     6.6    999.0   0.00  
 113   16:40  311.0    67   62.0     3    107.5     6.6    999.0   0.00  
 113   16:50  280.0    67   61.2     3     92.2     6.0    999.0   0.00  
 113   17:00  249.0    67   61.7     3     79.7     5.4    999.0   0.00  
 113   17:10  199.0    67   61.6     2     54.4     4.8    999.0   0.00  
 113   17:20  107.0    66   61.8     3    105.9     6.0    999.0   0.00  
 113   17:30   37.0    65   64.9     2    270.8     4.8    999.0   0.00  
 113   17:40   31.0    64   65.9     2    270.3     3.6    999.0   0.00  
 113   17:50   27.0    64   67.3     2    251.0     3.6    999.0   0.00  
 113   18:00   23.0    63   68.9     2    254.4     3.6    999.0   0.00  
 113   18:10   19.0    62   70.0     1    263.6     3.0    999.0   0.00  
 113   18:20   14.0    61   71.2     1    265.3     3.0    999.0   0.00  
 113   18:30    9.0    60   71.3     0    271.5     1.8    999.0   0.00  
 113   18:40    4.0    60   71.8     1    264.9     2.4    999.0   0.00  
 113   18:50    1.0    59   71.8     1    267.2     2.4    999.0   0.00  
 113   19:00    0.0    58   72.8     1    275.4     2.4    999.0   0.00  
 113   19:10    0.0    58   73.3     0    167.8     3.6    999.0   0.00  
 113   19:20    0.0    58   73.6     1    260.9     1.8    999.0   0.00  
 113   19:30    0.0    57   71.2     1    270.9     3.0    999.0   0.00  
 113   19:40    0.0    57   69.0     1    264.9     2.4    999.0   0.00  
 113   19:50    0.0    57   64.8     0    257.3     1.8    999.0   0.00  
 113   20:00    0.0    57   59.1     2    273.7     4.8    999.0   0.00  
 113   20:10    0.0    58   53.9     0    264.0     2.4    999.0   0.00  

Return to Avalon School graphs page.


Western Regional Climate Center,wrcc@dri.edu